SCP
0 0 1 1 1 1 1 1 0 0 0 1 1 1 1 1 1 1 1 2 3 2 2 1 1 1 1 1 1 0 0 1 1 1 1 0 0 0 0 0 0 0 0 0 0 0 0 0 0
0 0 1 1 1 1 1 0 0 0 0 1 1 1 1 1 1 1 1 2 3 3 2 1 1 1 1 1 1 1 1 1 1 1 1 1 0 0 0 0 0 0 0 0 0 0 0 0 0
0 0 0 0 1 1 0 0 0 0 0 1 2 2 1 1 1 1 2 2 3 3 2 2 1 1 1 1 1 1 1 1 1 1 1 1 1 1 1 0 0 0 0 0 0 0 0 0 0
0 0 0 0 0 0 0 0 0 0 1 2 2 2 1 1 1 1 2 2 3 2 2 2 2 2 1 1 1 1 1 1 1 1 1 1 1 1 1 1 0 0 0 0 0 0 0 0 0
0 0 0 0 0 0 0 0 0 1 1 3 3 3 2 1 1 1 2 2 2 2 2 2 2 2 2 1 1 1 1 1 1 1 1 1 1 1 1 1 1 0 0 0 0 0 0 0 0
0 0 0 0 0 0 0 0 1 1 2 2 3 4 3 2 1 1 1 2 2 3 3 2 2 2 2 2 2 1 1 1 1 1 1 1 2 2 2 1 1 1 1 1 1 1 1 0 0
0 0 0 0 0 0 0 1 1 2 2 3 3 4 3 3 2 2 1 2 2 3 3 2 2 2 2 2 2 2 2 2 2 1 1 1 2 2 2 1 1 1 1 1 1 1 1 1 1
0 0 0 0 0 0 0 1 2 2 3 3 3 4 5 5 3 2 2 2 3 3 3 3 2 2 2 2 2 2 2 2 2 1 1 1 1 2 2 1 1 1 1 1 1 1 1 1 1
0 0 0 0 1 0 0 1 2 3 3 4 5 5 7 6 3 2 3 3 3 4 3 3 2 2 2 2 2 2 2 2 2 1 1 1 1 1 2 2 2 2 1 1 1 1 1 1 1
0 0 0 0 0 0 0 1 2 3 4 5 7 7 6 5 3 3 3 4 4 4 3 3 3 3 3 3 3 2 2 2 2 2 2 2 2 2 2 2 2 2 2 2 2 2 2 1 1
0 0 0 0 0 0 0 2 3 4 5 7 8 7 5 4 4 3 4 5 5 4 3 4 4 4 4 4 4 3 3 3 3 3 3 3 3 3 3 3 3 3 2 2 3 3 3 2 2
0 0 0 0 0 0 1 4 5 5 6 8 7 6 5 5 4 5 5 5 5 5 4 4 5 6 6 6 5 4 4 4 4 4 4 4 4 3 4 4 4 3 3 3 4 4 4 3 3
0 0 0 0 0 1 3 6 7 6 6 6 5 5 5 5 5 5 6 7 7 6 6 6 8 9 8 7 6 5 4 4 4 4 4 4 4 4 4 5 5 4 4 4 4 4 4 4 4
0 0 1 0 0 1 3 6 6 5 5 5 5 5 5 6 6 6 7 9 10 8 7 8 9 9 8 7 7 6 4 4 5 5 5 5 4 4 4 5 5 5 5 4 3 3 4 4 4
0 0 1 1 1 1 2 4 5 5 6 6 7 7 7 8 9 9 11 12 11 9 8 9 9 7 6 6 6 5 4 4 5 6 6 5 4 4 4 4 4 5 5 4 3 3 3 3 3
0 0 0 0 0 1 1 3 4 6 6 7 8 9 11 13 14 14 15 13 11 10 9 9 8 5 4 4 5 4 4 4 5 5 5 5 4 3 3 4 4 4 3 3 3 2 2 2 2
0 0 0 0 1 1 1 2 4 5 6 7 7 9 13 15 15 14 13 10 9 9 10 10 8 6 5 4 4 4 5 5 5 4 3 3 3 2 2 2 2 2 2 2 2 2 2 2 1
0 0 0 0 1 1 1 2 3 3 4 6 6 7 9 11 10 9 8 7 6 8 10 10 8 7 6 5 5 5 5 4 3 3 2 2 2 2 2 2 2 2 2 2 2 2 2 1 1
0 0 0 0 1 1 1 2 3 3 3 4 4 4 5 6 6 5 5 5 5 6 7 7 7 6 5 5 5 4 3 2 2 2 2 1 1 1 1 1 1 1 2 2 2 2 2 1 1
0 0 0 1 1 1 1 2 3 2 2 2 2 3 3 4 4 3 3 4 4 4 5 5 5 5 4 4 3 3 2 2 2 2 2 2 1 1 1 2 2 2 2 2 2 2 2 1 1
0 0 0 0 1 1 1 2 2 2 2 2 2 2 2 3 3 3 3 3 3 3 3 3 3 3 3 2 2 2 2 2 2 2 2 2 2 2 2 2 2 2 2 2 2 2 2 1 1
0 0 0 0 0 1 1 1 2 2 2 2 2 2 2 3 3 3 2 2 2 1 2 2 3 2 2 2 2 2 2 2 2 2 2 2 2 2 2 2 2 2 2 2 2 2 1 1 1
0 0 0 0 0 0 0 1 1 1 2 2 2 2 2 3 3 2 2 1 1 1 2 2 2 2 2 2 2 2 2 2 2 2 2 2 2 2 2 2 2 2 2 1 1 1 1 1 1
0 0 0 0 0 0 0 0 1 1 1 1 2 2 2 2 2 2 1 1 1 1 2 2 3 3 2 2 2 2 2 2 2 2 2 1 1 1 1 1 1 2 1 1 1 1 1 1 1
0 1 1 1 0 0 0 0 1 1 1 1 1 2 2 1 1 1 1 1 1 2 2 3 3 3 2 2 2 2 2 2 1 1 1 1 1 1 1 1 1 1 1 1 1 1 1 1 1
0 0 1 1 0 0 0 0 0 0 0 1 1 1 1 1 1 1 1 1 1 2 2 3 3 3 2 2 2 2 2 1 1 1 1 1 1 1 1 1 1 1 1 1 1 1 1 1 1
0 0 0 0 0 0 0 0 0 0 0 0 0 1 1 1 1 1 1 1 1 2 2 2 3 3 2 2 2 2 2 2 1 1 1 1 1 1 1 1 1 1 1 1 1 1 1 1 1
0 0 0 0 0 0 0 0 0 0 0 0 0 0 1 0 0 1 1 1 1 2 2 2 2 3 2 2 1 1 2 1 1 1 1 1 1 1 1 1 1 1 1 1 1 1 1 1 1
0 0 0 0 0 0 0 0 0 0 0 0 0 0 0 0 0 1 1 1 2 2 2 2 2 2 2 1 1 1 1 1 1 1 1 1 1 1 1 1 1 1 1 1 1 1 1 1 1
0 0 0 0 0 0 0 0 0 0 0 0 0 0 0 0 1 1 1 2 2 1 1 1 2 2 2 1 1 1 1 1 1 1 1 1 1 1 1 1 1 1 1 1 1 1 1 1 1
Wind_Speed
11 12 11 8 6 4 8 10 6 10 10 9 10 11 18 16 12 11 11 20 24 21 18 17 15 14 13 11 11 11 11 11 11 11 11 11 11 11 10 10 9 9 9 9 9 9 9 9 8
11 13 10 8 6 2 4 9 6 8 6 6 9 13 18 16 14 14 15 20 23 20 17 15 16 14 13 12 11 11 11 11 11 11 11 11 10 10 9 9 8 8 8 8 8 8 8 8 7
14 16 9 8 9 6 6 6 4 3 5 5 9 13 12 12 13 13 16 21 21 19 17 16 16 14 13 12 11 10 11 11 11 11 10 10 10 9 9 8 7 7 7 7 7 7 7 7 6
10 11 9 10 13 8 3 4 6 4 4 5 10 12 10 9 12 15 18 21 21 19 17 16 16 14 13 12 11 10 10 10 10 10 10 9 9 8 8 7 7 6 6 5 6 6 6 6 5
11 9 12 13 14 9 5 5 5 5 3 6 12 14 12 12 16 18 18 20 19 19 18 16 16 15 13 12 11 10 10 10 10 9 9 9 8 7 7 6 6 6 5 5 5 5 5 5 4
9 10 13 13 12 6 4 4 4 5 3 7 13 15 11 13 15 16 17 17 19 20 19 16 16 15 13 12 11 10 10 9 9 8 8 8 7 7 6 6 6 5 5 5 5 4 4 4 4
11 12 16 18 12 8 4 3 3 3 2 2 10 12 11 11 12 14 15 15 19 21 18 15 14 13 12 11 11 10 9 9 8 7 7 7 6 7 7 6 6 6 5 4 4 4 4 4 4
10 11 17 17 12 8 2 2 2 2 1 2 6 11 12 13 11 12 14 14 18 18 17 15 14 12 11 10 11 10 9 9 8 7 7 6 7 7 8 8 8 7 6 6 5 5 5 5 6
11 12 14 13 9 6 6 5 3 3 1 2 8 14 16 16 14 13 13 13 13 14 13 14 14 12 10 11 12 11 10 9 8 7 8 6 5 6 7 8 9 9 8 7 6 6 6 6 8
9 11 12 9 10 10 9 7 5 4 3 5 14 18 15 14 14 13 13 13 12 11 11 11 11 8 7 7 9 7 7 7 6 5 6 4 3 2 2 6 8 8 8 7 7 7 7 7 5
10 11 11 11 10 10 11 8 3 2 4 6 7 15 12 13 12 12 11 12 11 9 9 12 10 6 5 5 5 3 2 4 4 4 4 3 1 0 0 2 4 4 6 4 5 6 4 4 3
9 9 9 10 10 10 10 6 5 6 8 8 5 9 10 11 11 10 11 11 10 8 9 10 9 6 4 4 2 2 2 3 2 3 3 2 1 0 0 0 1 2 1 2 2 2 4 3 3
10 9 8 9 9 9 6 4 2 6 10 12 10 10 9 10 11 11 11 9 9 8 8 9 8 6 4 3 2 2 2 2 1 1 1 1 1 1 0 0 0 2 2 2 2 2 2 2 3
10 10 10 10 11 7 4 2 2 6 9 10 11 9 9 10 12 12 11 9 8 7 7 8 8 7 5 3 1 1 2 1 1 1 1 1 1 1 1 1 1 2 2 1 2 2 2 2 2
8 8 8 9 9 8 3 4 2 1 6 8 9 9 9 11 12 12 10 8 8 7 7 7 8 7 4 3 1 1 1 2 1 1 2 2 2 1 1 1 2 1 1 1 2 2 2 3 3
11 7 6 8 7 5 2 2 2 2 2 6 8 9 10 10 11 11 9 8 8 9 8 5 6 7 5 2 1 1 2 1 1 1 2 2 1 0 1 1 0 1 2 2 2 2 2 3 3
8 6 7 6 3 2 4 1 4 4 2 5 8 9 11 10 11 10 8 9 9 9 8 6 6 5 4 2 1 1 1 0 1 1 2 2 1 1 1 1 0 1 2 2 3 1 1 2 3
9 5 1 3 0 2 3 3 2 5 4 6 9 9 10 9 9 9 9 10 9 9 7 6 5 5 3 2 1 0 0 1 1 2 2 2 1 1 2 1 1 2 2 2 2 3 3 3 4
10 6 4 4 2 2 4 7 6 6 6 7 8 9 10 9 10 9 9 10 9 8 7 5 5 3 2 1 1 1 1 1 0 1 3 2 0 1 1 2 2 2 2 2 3 2 3 3 3
9 6 4 4 3 1 4 4 5 2 3 6 8 9 10 10 9 9 8 9 8 7 6 6 5 4 2 2 1 0 0 2 1 1 2 1 0 1 2 2 2 3 3 4 3 2 2 4 3
7 6 4 4 3 3 4 3 2 3 3 6 8 10 10 11 11 10 9 9 9 7 6 5 5 4 2 2 1 1 1 1 1 1 0 1 1 1 2 2 2 3 4 3 3 3 3 3 4
6 5 4 6 4 2 4 2 3 5 6 7 9 9 9 10 11 10 9 9 8 7 7 7 5 3 2 1 2 3 2 2 3 2 1 2 2 2 2 2 2 2 3 4 5 3 3 3 4
5 6 7 8 6 3 4 2 5 7 7 8 8 9 10 9 9 9 8 8 8 8 7 7 5 4 2 1 2 2 3 3 3 4 4 3 3 3 3 2 1 1 2 4 5 5 4 3 4
5 4 7 9 7 5 7 3 5 7 8 9 9 9 9 10 10 8 8 8 6 6 6 7 6 4 2 0 1 2 3 4 4 5 4 3 3 2 2 2 1 1 2 4 4 4 5 4 5
5 3 2 2 0 6 8 2 6 9 9 10 11 10 9 9 9 9 8 8 7 6 5 5 7 4 2 1 1 2 3 4 5 4 3 3 3 3 3 4 3 3 3 4 5 5 5 5 6
7 5 4 4 3 4 6 4 8 10 9 10 12 11 9 10 10 10 9 8 7 6 5 5 6 4 1 0 1 1 2 3 3 4 5 5 4 3 3 3 3 4 4 6 5 4 5 5 5
7 6 6 5 5 2 1 6 12 10 10 10 12 13 12 11 11 10 9 8 7 6 6 5 5 3 1 1 0 3 2 2 3 4 4 4 3 5 5 5 5 5 5 5 5 5 6 5 5
8 10 5 4 4 1 2 1 6 11 11 11 11 12 12 11 10 9 8 7 7 6 6 5 5 3 1 1 2 2 2 2 3 4 4 4 4 4 5 5 5 5 6 6 5 5 5 6 5
6 7 6 6 6 3 1 2 6 10 10 11 12 11 11 10 9 8 8 8 7 6 6 5 4 4 3 2 1 1 2 3 4 4 4 4 4 4 5 5 6 6 6 6 5 6 7 7 6
7 7 5 4 6 5 1 3 6 8 11 11 10 11 9 8 8 9 9 8 6 5 5 4 3 3 3 2 2 2 2 3 4 5 4 4 5 5 5 5 5 6 6 5 5 6 7 6 6
Wind_Direction
202 223 228 243 243 250 312 305 25 47 57 56 53 62 69 57 71 97 116 113 113 118 124 124 121 122 122 123 128 132 134 134 130 127 124 122 119 116 113 110 105 101 96 91 87 85 83 82 81
218 228 233 242 242 265 284 286 19 50 63 77 74 74 79 73 83 105 111 114 117 123 131 125 123 123 122 122 125 131 135 137 134 131 129 127 125 123 120 116 111 106 101 97 93 91 90 87 85
241 242 252 249 245 225 215 261 40 51 85 79 78 69 68 87 100 110 120 119 117 119 118 122 126 123 123 122 123 127 131 133 135 133 132 131 131 130 128 125 121 115 107 104 101 99 99 97 94
243 236 243 258 272 274 264 344 17 357 82 97 96 86 83 86 109 120 126 118 117 121 121 123 125 123 123 122 122 124 126 129 131 132 133 135 135 133 133 132 131 127 121 119 112 110 109 110 108
242 257 252 264 277 283 311 350 350 328 70 77 90 97 96 100 114 127 126 124 130 123 121 126 125 123 123 124 125 125 126 128 132 135 137 138 141 141 140 140 140 138 134 129 128 124 125 129 130
249 258 269 273 275 283 305 348 345 10 22 101 104 111 107 119 126 133 132 137 131 124 123 126 127 127 127 128 128 130 132 134 137 141 144 147 151 154 155 156 154 150 145 145 146 145 149 153 163
263 280 282 284 288 286 293 342 355 30 337 57 116 112 117 128 132 135 136 133 126 123 128 137 137 135 135 135 136 137 140 144 148 152 157 163 171 175 175 176 173 169 167 168 171 173 178 183 191
263 283 282 281 276 274 282 312 20 28 49 82 126 117 138 134 144 136 133 129 125 128 136 142 145 145 152 151 150 150 155 158 162 167 174 182 196 197 197 196 192 187 184 187 194 198 200 205 210
258 264 272 287 308 320 338 327 359 337 29 65 94 112 129 141 146 141 136 126 121 125 135 143 141 150 160 159 155 162 170 174 177 182 190 200 218 210 203 211 184 188 193 197 205 212 216 219 220
246 262 280 313 324 322 322 318 315 313 42 60 91 104 132 143 143 144 139 130 122 125 129 122 127 135 149 149 146 173 178 170 193 180 180 203 228 247 197 167 178 193 202 207 210 217 224 227 230
258 272 302 312 313 309 300 299 296 343 51 54 99 129 139 134 139 138 132 127 120 125 117 116 114 123 127 118 150 148 153 146 186 169 169 192 229 280 63 146 167 196 213 220 208 212 224 225 228
263 279 289 293 300 293 290 299 353 64 106 117 106 117 127 133 132 132 125 125 124 119 111 115 118 112 82 78 101 124 120 142 164 145 167 153 153 247 273 97 162 199 211 227 232 217 221 235 250
269 275 283 284 276 278 301 335 33 78 118 130 139 139 146 138 129 120 107 109 116 111 106 100 104 99 92 71 15 67 75 90 97 100 126 116 168 217 282 321 279 256 225 207 220 228 238 243 247
303 314 315 320 313 300 288 316 37 97 132 140 139 140 132 120 115 110 108 109 118 122 115 109 108 105 100 98 72 34 61 73 51 95 115 90 66 56 352 270 247 254 245 200 211 219 227 233 247
300 303 323 312 290 278 296 357 20 179 131 134 126 113 104 99 102 106 110 117 127 120 107 107 109 105 103 93 65 86 72 81 76 125 103 76 51 44 292 268 255 275 277 239 233 245 240 241 236
297 293 285 275 274 290 38 289 289 217 146 121 113 110 99 87 99 100 107 110 103 99 94 88 101 111 110 103 68 41 22 52 70 56 85 84 68 42 281 274 279 301 283 257 239 230 241 251 252
291 276 273 272 256 316 44 345 301 267 171 136 120 114 107 100 100 105 109 99 93 96 100 97 87 96 101 107 108 109 110 47 46 72 84 84 45 335 302 312 350 283 291 292 299 322 301 287 283
289 287 310 308 170 103 107 121 293 263 217 153 128 126 121 120 114 113 110 108 103 102 105 107 99 94 106 105 96 90 126 183 144 125 119 94 33 15 353 310 7 322 288 297 309 298 282 274 269
310 329 347 325 329 99 140 158 185 203 195 131 132 125 121 120 120 118 118 119 118 119 121 121 112 109 103 82 38 28 39 336 224 143 116 111 52 18 325 325 335 305 299 303 286 284 294 279 260
313 325 340 307 319 44 108 107 120 139 150 143 142 134 132 130 129 130 132 133 132 132 131 133 128 124 122 100 77 165 354 306 307 56 109 143 102 359 302 34 335 326 324 298 284 281 281 292 291
310 314 313 283 285 76 75 68 115 159 176 149 151 150 151 146 145 147 146 143 139 138 140 125 112 104 76 65 336 5 20 286 314 351 75 75 28 341 318 322 315 328 314 311 334 305 290 287 294
307 324 311 290 274 242 184 183 189 186 188 175 164 159 159 149 149 152 151 146 142 143 137 123 121 112 85 39 18 356 334 332 326 342 38 26 330 297 291 291 301 322 321 320 311 337 339 307 293
323 354 347 342 335 291 227 181 173 192 197 184 173 170 162 156 153 153 152 147 147 150 145 137 131 122 105 32 13 338 337 340 346 355 346 339 299 271 259 252 263 305 299 305 318 318 309 303 295
319 352 9 7 359 304 252 215 165 181 191 185 175 172 170 161 155 153 157 150 149 153 149 141 134 130 133 269 346 344 344 341 330 320 311 307 301 301 302 301 31 315 306 313 310 302 292 279 280
279 293 352 1 316 256 252 204 136 160 168 169 164 166 171 165 160 162 165 158 164 165 149 138 137 143 163 214 16 13 358 322 290 286 309 325 319 325 17 14 4 333 316 300 288 286 280 280 279
260 254 253 276 238 233 220 148 126 132 142 153 157 162 171 173 169 174 170 165 167 160 152 141 131 133 150 196 77 19 318 303 323 6 350 324 312 322 344 330 306 295 291 292 297 297 283 275 273
281 269 269 290 302 315 283 119 123 135 143 155 161 164 177 181 176 175 166 168 161 152 139 127 121 125 120 13 37 238 237 275 308 313 290 293 323 315 336 334 316 301 289 283 283 278 280 280 274
290 299 302 295 297 311 1 244 152 157 160 163 168 172 175 176 175 165 157 155 141 133 123 121 120 123 152 260 274 317 18 322 302 297 308 303 295 295 298 296 298 295 290 283 277 277 275 277 272
259 275 293 307 313 333 58 277 172 177 169 171 175 178 179 179 169 154 144 132 127 136 140 137 142 159 188 213 207 299 288 300 308 300 294 298 302 303 297 293 290 289 286 283 280 278 276 275 275
289 274 272 280 299 296 285 137 147 165 171 173 175 172 169 163 153 145 137 131 142 150 145 143 157 187 191 195 186 220 254 283 292 297 308 312 305 298 294 290 289 288 288 288 287 287 289 286 282